Погода в Облучье

Россия / Еврейская автономная область     49°01′08″N   131°03′14″E
темп.,
°C
ветер,
м/с
пор.,
м/с
влажн.,
%
обл.,
%
осадки,
мм/ч
давл.,
гПа
погр.,
м
18 января, вт
вт1801:00−20з23100100 0.2 1027149
04:00−21з23100100 0.3 1028160
07:00−23з23100100 0.1 1030154
10:00−24з23100100 0.1 1032157
13:00−21з2497100 0.1 1032363
16:00−19зсз3594100 0.1 1032433
19:00−26зсз11100100 0.1 103430
22:00−28сз11100100 0.1 103422
19 января, ср
ср1901:00−29зсз11100100 0.1 103521
04:00−30зсз11100100 0.1 103524
07:00−31зсз11100100 0.1 103530
10:00−30з12100100 0.1 103571
13:00−25з2498100 0.0 1033272
16:00−22з3595100 0.1 1032400
19:00−29зсз1110099 0.0 103314
22:00−30ссз1110099 0.0 103312
20 января, чт
чт2001:00−31ссз1110097 0.0 103313
04:00−32ссз1110077 0.0 103412
07:00
10:00−31зсз1210089 0.0 103549
13:00−25з2399100 0.0 1035255
16:00
19:00−29зсз11100100 0.0 103815
22:00−31сз11100100 0.1 103914
21 января, пт
пт2101:00−31сз11100100 0.0 103914
04:00−32сз1110084 0.0 103916
07:00−32сз1110074 0.0 103915
10:00−28зсз1110066 0.0 103941
13:00−20з249261 0.0 1036277
16:00−18зсз258751 0.0 1035395
19:00−26сз1110068 0.0 103611
22:00−27с1110062 0.0 103611
22 января, сб
сб2201:00−28с1110060 0.0 103413
04:00−28ссз1110061 0.0 103412
07:00−28ссз1110065 0.0 103411
10:00−26зсз1110065 0.0 103440
13:00−20з239153 0.0 1032262
16:00−18з249071 0.0 1031356
19:00−26зсз11100100 0.0 103311
22:00−26ссз11100100 0.0 103315